This is the latest recevied weather packets stored in our database for station/object K2ATL. If no packets are shown the sender has not sent any weather packets the latest 10 day(s).
| Time | Temp. | Humidity | Pressure | Rain* | Wind** | Luminosity | Snow |
|---|---|---|---|---|---|---|---|
| 1777872738 | 11.67° C | 59% | 1103 hPa | 0 mm | - | 0 W/m² | - |
| 1777872435 | 11.67° C | 60% | 1103.2 hPa | 0 mm | - | 0 W/m² | - |
| 1777872134 | 11.67° C | 59% | 1103.2 hPa | 0 mm | - | 0 W/m² | - |
| 1777871830 | 11.67° C | 60% | 1103.2 hPa | 0 mm | - | 0 W/m² | - |
| 1777871526 | 11.67° C | 60% | 1103.1 hPa | 0 mm | - | 0 W/m² | - |
| 1777871223 | 11.67° C | 60% | 1103 hPa | 0 mm | - | 0 W/m² | - |
| 1777870920 | 11.67° C | 59% | 1103.2 hPa | 0 mm | - | 0 W/m² | - |
| 1777870618 | 11.67° C | 61% | 1103.2 hPa | 0 mm | - | 0 W/m² | - |
| 1777870317 | 11.67° C | 62% | 1103.2 hPa | 0 mm | - | 0 W/m² | - |
| 1777870015 | 11.11° C | 63% | 1103.2 hPa | 0 mm | - | 0 W/m² | - |
| 1777869712 | 11.11° C | 63% | 1103.1 hPa | 0 mm | - | 0 W/m² | - |
| 1777869409 | 11.11° C | 63% | 1103.2 hPa | 0 mm | - | 0 W/m² | - |
| 1777869106 | 11.11° C | 62% | 1102.8 hPa | 0 mm | - | 0 W/m² | - |
| 1777868804 | 11.11° C | 63% | 1103 hPa | 0 mm | - | 0 W/m² | - |
| 1777868500 | 10.56° C | 62% | 1103 hPa | 0 mm | - | 0 W/m² | - |
| 1777868196 | 11.11° C | 62% | 1103.1 hPa | 0 mm | - | 0 W/m² | - |
| 1777867892 | 11.11° C | 61% | 1102.8 hPa | 0 mm | - | 0 W/m² | - |
| 1777867590 | 11.11° C | 60% | 1102.7 hPa | 0 mm | - | 0 W/m² | - |
| 1777867287 | 11.67° C | 59% | 1102.7 hPa | 0 mm | - | 0 W/m² | - |
| 1777866983 | 11.67° C | 58% | 1102.8 hPa | 0 mm | - | 0 W/m² | - |
| 1777866680 | 11.11° C | 59% | 1102.6 hPa | 0 mm | - | 0 W/m² | - |
| 1777866378 | 11.11° C | 60% | 1102.7 hPa | 0 mm | - | 0 W/m² | - |
| 1777866074 | 11.11° C | 61% | 1102.6 hPa | 0 mm | - | 0 W/m² | - |
| 1777865772 | 11.67° C | 58% | 1102.5 hPa | 0 mm | - | 0 W/m² | - |
| 1777865469 | 11.67° C | 56% | 1102.5 hPa | 0 mm | - | 0 W/m² | - |
* Rain latest hour (hover to see other rain measurements)
** Current wind speed in m/s (hover to see current wind gust speed)